| time (UTC) | temp C | wind direction | speed KPH | gust KPH | rain 1hr cm | rain 24hr cm | rain mn cm | humidity % | barometer mb |
| 20260504192404 | 28 | 180 | 11.3 | 22.5 | 0.00 | 0.00 | 0.00 | 65 | 1011.8 |
| 20260504191905 | 28 | 166 | 9.7 | 16.1 | 0.00 | 0.00 | 0.00 | 64 | 1011.9 |
| 20260504190404 | 28 | 155 | 11.3 | 19.3 | 0.00 | 0.00 | 0.00 | 61 | 1012.0 |
| 20260504185905 | 28 | 135 | 9.7 | 19.3 | 0.00 | 0.00 | 0.00 | 62 | 1012.1 |
| 20260504184405 | 28 | 154 | 11.3 | 19.3 | 0.00 | 0.00 | 0.00 | 63 | 1012.1 |
| 20260504182905 | 28 | 186 | 9.7 | 22.5 | 0.00 | 0.00 | 0.00 | 63 | 1012.2 |
| 20260504182405 | 28 | 143 | 11.3 | 20.9 | 0.00 | 0.00 | 0.00 | 61 | 1012.6 |
| 20260504181405 | 28 | 184 | 11.3 | 16.1 | 0.00 | 0.00 | 0.00 | 62 | 1012.7 |
| 20260504174405 | 27 | 171 | 11.3 | 25.7 | 0.00 | 0.00 | 0.00 | 63 | 1012.9 |
| 20260504171905 | 27 | 169 | 9.7 | 19.3 | 0.00 | 0.00 | 0.00 | 64 | 1013.2 |
| 20260504160404 | 26 | 174 | 8.0 | 19.3 | 0.00 | 0.00 | 0.00 | 65 | 1014.2 |
| 20260504140905 | 22 | 130 | 8.0 | 14.5 | 0.00 | 0.00 | 0.00 | 76 | 1014.0 |
| 20260504130404 | 16 | 322 | 0.0 | 3.2 | 0.00 | 0.00 | 0.00 | 94 | 1014.2 |
| 20260504081405 | 15 | 115 | 0.0 | 0.0 | 0.00 | 0.00 | 0.00 | 85 | 1015.0 |
| 20260504070404 | 15 | 115 | 0.0 | 0.0 | 0.00 | 0.00 | 0.00 | 82 | 1015.8 |
| 20260504050404 | 16 | 115 | 0.0 | 0.0 | 0.00 | 0.00 | 0.00 | 76 | 1016.6 |
| 20260504045405 | 16 | 115 | 0.0 | 0.0 | 0.00 | 0.00 | 0.00 | 75 | 1016.6 |
| 20260504044405 | 16 | 115 | 0.0 | 0.0 | 0.00 | 0.00 | 0.00 | 75 | 1016.7 |
| 20260504043904 | 16 | 115 | 0.0 | 0.0 | 0.00 | 0.00 | 0.00 | 74 | 1016.9 |
| 20260504043404 | 17 | 115 | 0.0 | 0.0 | 0.00 | 0.00 | 0.00 | 74 | 1016.9 |
| 20260504041404 | 17 | 115 | 0.0 | 1.6 | 0.00 | 0.00 | 0.00 | 72 | 1016.7 |
| 20260504035904 | 17 | 115 | 0.0 | 3.2 | 0.00 | 0.00 | 0.00 | 71 | 1016.7 |
| 20260504032404 | 18 | 115 | 0.0 | 0.0 | 0.00 | 0.00 | 0.00 | 69 | 1016.8 |
| 20260504031904 | 18 | 115 | 1.6 | 4.8 | 0.00 | 0.00 | 0.00 | 68 | 1016.8 |
| 20260504025904 | 18 | 116 | 4.8 | 9.7 | 0.00 | 0.00 | 0.00 | 66 | 1016.6 |
| 20260504025405 | 19 | 112 | 1.6 | 11.3 | 0.00 | 0.00 | 0.00 | 66 | 1016.7 |
| 20260504023904 | 19 | 111 | 3.2 | 4.8 | 0.00 | 0.00 | 0.00 | 65 | 1016.7 |
| 20260504023404 | 19 | 111 | 3.2 | 8.0 | 0.00 | 0.00 | 0.00 | 65 | 1016.6 |
| 20260504022904 | 20 | 101 | 3.2 | 4.8 | 0.00 | 0.00 | 0.00 | 65 | 1016.6 |
| 20260504022405 | 20 | 113 | 4.8 | 9.7 | 0.00 | 0.00 | 0.00 | 65 | 1016.6 |
| 20260504020904 | 20 | 113 | 4.8 | 11.3 | 0.00 | 0.00 | 0.00 | 64 | 1016.5 |
| 20260504020404 | 20 | 123 | 4.8 | 11.3 | 0.00 | 0.00 | 0.00 | 63 | 1016.5 |
| 20260504013904 | 20 | 116 | 4.8 | 9.7 | 0.00 | 0.00 | 0.00 | 63 | 1016.5 |
| 20260504013404 | 20 | 117 | 4.8 | 9.7 | 0.00 | 0.00 | 0.00 | 62 | 1016.5 |
| 20260504012904 | 21 | 115 | 3.2 | 8.0 | 0.00 | 0.00 | 0.00 | 62 | 1016.5 |
| 20260504011904 | 21 | 140 | 4.8 | 9.7 | 0.00 | 0.00 | 0.00 | 61 | 1016.4 |
| 20260504010904 | 21 | 117 | 3.2 | 8.0 | 0.00 | 0.00 | 0.00 | 59 | 1016.3 |
| 20260504010404 | 21 | 114 | 8.0 | 14.5 | 0.00 | 0.00 | 0.00 | 58 | 1016.4 |
| 20260504005404 | 22 | 115 | 4.8 | 11.3 | 0.00 | 0.00 | 0.00 | 57 | 1016.4 |
| 20260504004904 | 22 | 119 | 6.4 | 11.3 | 0.00 | 0.00 | 0.00 | 56 | 1016.3 |
| 20260504004404 | 22 | 139 | 8.0 | 12.9 | 0.00 | 0.00 | 0.00 | 56 | 1016.3 |
| 20260504003404 | 22 | 105 | 8.0 | 12.9 | 0.00 | 0.00 | 0.00 | 53 | 1016.3 |
| 20260504002904 | 22 | 115 | 6.4 | 12.9 | 0.00 | 0.00 | 0.00 | 53 | 1016.3 |
| 20260504002404 | 22 | 126 | 6.4 | 11.3 | 0.00 | 0.00 | 0.00 | 53 | 1016.3 |
| 20260504000904 | 23 | 145 | 4.8 | 9.7 | 0.00 | 0.00 | 0.00 | 51 | 1016.3 |
| 20260504000404 | 23 | 118 | 6.4 | 16.1 | 0.00 | 0.00 | 0.00 | 50 | 1016.5 |
| 20260503235404 | 24 | 140 | 9.7 | 16.1 | 0.00 | 0.00 | 0.00 | 50 | 1016.3 |
| 20260503234904 | 24 | 115 | 8.0 | 14.5 | 0.00 | 0.00 | 0.00 | 50 | 1016.5 |
| 20260503234405 | 24 | 107 | 8.0 | 19.3 | 0.00 | 0.00 | 0.00 | 49 | 1016.6 |
| 20260503233904 | 25 | 138 | 8.0 | 12.9 | 0.00 | 0.00 | 0.00 | 49 | 1016.6 |
| 20260503233404 | 25 | 179 | 9.7 | 22.5 | 0.00 | 0.00 | 0.00 | 49 | 1016.7 |
| 20260503231904 | 25 | 110 | 8.0 | 19.3 | 0.00 | 0.00 | 0.00 | 47 | 1016.6 |
| 20260503231404 | 25 | 129 | 8.0 | 19.3 | 0.00 | 0.00 | 0.00 | 46 | 1016.6 |
| 20260503230904 | 25 | 122 | 9.7 | 14.5 | 0.00 | 0.00 | 0.00 | 45 | 1016.6 |
| 20260503230404 | 26 | 138 | 6.4 | 14.5 | 0.00 | 0.00 | 0.00 | 46 | 1016.7 |
| 20260503225904 | 26 | 122 | 8.0 | 14.5 | 0.00 | 0.00 | 0.00 | 46 | 1016.8 |
| 20260503223903 | 26 | 137 | 8.0 | 16.1 | 0.00 | 0.00 | 0.00 | 46 | 1017.0 |
| 20260503223405 | 26 | 113 | 6.4 | 12.9 | 0.00 | 0.00 | 0.00 | 45 | 1017.1 |
| 20260503222904 | 26 | 112 | 9.7 | 19.3 | 0.00 | 0.00 | 0.00 | 43 | 1017.1 |
| 20260503222404 | 26 | 113 | 9.7 | 14.5 | 0.00 | 0.00 | 0.00 | 46 | 1017.2 |
| 20260503220904 | 26 | 80 | 9.7 | 16.1 | 0.00 | 0.00 | 0.00 | 43 | 1017.1 |
| 20260503220404 | 27 | 171 | 8.0 | 12.9 | 0.00 | 0.00 | 0.00 | 45 | 1017.1 |
| 20260503215904 | 27 | 149 | 6.4 | 14.5 | 0.00 | 0.00 | 0.00 | 47 | 1017.1 |
| 20260503215404 | 27 | 148 | 9.7 | 19.3 | 0.00 | 0.00 | 0.00 | 42 | 1017.1 |
| 20260503213904 | 28 | 49 | 8.0 | 14.5 | 0.00 | 0.00 | 0.00 | 41 | 1017.4 |
| 20260503213404 | 29 | 48 | 8.0 | 12.9 | 0.00 | 0.00 | 0.00 | 40 | 1017.5 |
| 20260503212904 | 29 | 14 | 3.2 | 16.1 | 0.00 | 0.00 | 0.00 | 41 | 1017.5 |
| 20260503205403 | 30 | 50 | 9.7 | 14.5 | 0.00 | 0.00 | 0.00 | 39 | 1017.9 |
| 20260503204905 | 30 | 53 | 9.7 | 19.3 | 0.00 | 0.00 | 0.00 | 39 | 1017.9 |
| 20260503204404 | 29 | 72 | 8.0 | 12.9 | 0.00 | 0.00 | 0.00 | 39 | 1018.0 |
| 20260503203904 | 29 | 36 | 8.0 | 20.9 | 0.00 | 0.00 | 0.00 | 40 | 1018.1 |
| 20260503202404 | 29 | 51 | 4.8 | 12.9 | 0.00 | 0.00 | 0.00 | 43 | 1018.5 |
| 20260503201404 | 29 | 59 | 11.3 | 16.1 | 0.00 | 0.00 | 0.00 | 40 | 1018.7 |
| 20260503195904 | 29 | 65 | 9.7 | 19.3 | 0.00 | 0.00 | 0.00 | 40 | 1018.9 |
| 20260503195404 | 29 | 66 | 11.3 | 19.3 | 0.00 | 0.00 | 0.00 | 39 | 1019.0 |
| 20260503194904 | 29 | 65 | 11.3 | 19.3 | 0.00 | 0.00 | 0.00 | 39 | 1019.0 |
| 20260503193403 | 29 | 8 | 9.7 | 19.3 | 0.00 | 0.00 | 0.00 | 41 | 1019.4 |
| 20260503192904 | 29 | 71 | 11.3 | 19.3 | 0.00 | 0.00 | 0.00 | 39 | 1019.4 |